METEOR 2-1

导读

METEOR 2-1(流星2-1)是苏联解体后独联体(CIS)继承的苏联第二代极轨气象卫星,1975年7月11日发射升空。作为流星二号系列的首星,运行于近900公里高度的非太阳同步极轨道,质量约1300千克,携带气象观测载荷,可获取云图数据,为气象预报与气候研究提供支撑,开启了苏联第二代气象卫星的应用进程。

Basic Information
目录编号:
8026
目录名称:
METEOR 2-1
国际标识:
1975-064A
轨道中心:
EARTH
卫星名称:
METEOR 2-1
卫星全名:
--
卫星状态:
在轨 (已飞行18644 天)
发射日期:
1975-07-11 UTC
国别 :
俄罗斯(独联体) (CIS)
星等 :
--
Orbit Information
数据来源 国际轨道数据 AOE轨道数据
星历时间 2026-07-27T22:55:44+0800
8小时前
查看轨道信息
2026-07-26T05:00:00+0800
2天前
查看轨道信息
半长轴 7234.707km 7234.711km
偏心率 0.002369 0.0023434
轨道倾角 81.281° 81.281°
近地点辐角 104.978° 109.312°
升交点赤经 344.008° 345.704°
平近点角 255.402° 22.928°
近地点 839.43km 839.62km
远地点 873.71km 873.528km
周期 102.068分钟 102.068分钟
每日圈数 14.108192 14.10818
Detailed Information
使用方式:
暂无
2D Orbit Map
3D Orbit Map
Orbit Altitude Analysis Chart
Orbit Inclination Analysis Chart
Orbit Comprehensive Analysis Chart
View Comprehensive Chart